Overview Statistics Trail Chart Weather Telemetry Raw packets
 

This is the latest recevied weather packets stored in our database for station/object KY0TEQ-13. If no packets are shown the sender has not sent any weather packets the latest 10 day(s).

<< 33 34 35 36 37 38 39 >>
Time Temp. Humidity Pressure Rain* Wind** Luminosity Snow
1788461606 24.44° C 30% 1308.9 hPa 0 mm - 714 W/m² -
1788461297 23.89° C 32% 1309 hPa 0 mm - 710 W/m² -
1788460994 25° C 29% 1308.8 hPa 0 mm - 723 W/m² -
1788460688 23.89° C 31% 1308.9 hPa 0 mm - 748 W/m² -
1788460383 23.33° C 32% 1308.9 hPa 0 mm - 704 W/m² -
1788460082 22.78° C 32% 1308.9 hPa 0 mm - 218 W/m² -
1788459776 23.89° C 31% 1309.4 hPa 0 mm - 592 W/m² -
1788459475 23.33° C 31% 1309.1 hPa 0 mm - 729 W/m² -
1788459171 22.22° C 33% 1309.1 hPa 0 mm - 696 W/m² -
1788458866 22.78° C 33% 1309.5 hPa 0 mm - 716 W/m² -
1788458565 22.78° C 33% 1309.4 hPa 0 mm - 710 W/m² -
1788458265 22.78° C 32% 1309.4 hPa 0 mm - 707 W/m² -
1788457964 22.78° C 31% 1309.5 hPa 0 mm - 694 W/m² -
1788457663 21.67° C 34% 1309.7 hPa 0 mm - 262 W/m² -
1788457359 22.78° C 36% 1309.5 hPa 0 mm - 75 W/m² -
1788457054 23.33° C 34% 1309.6 hPa 0 mm - 659 W/m² -
1788456750 22.22° C 33% 1309.6 hPa 0 mm - 640 W/m² -
1788456450 22.78° C 32% 1309.6 hPa 0 mm - 658 W/m² -
1788456144 22.78° C 35% 1309.5 hPa 0 mm - 645 W/m² -
1788455839 22.22° C 35% 1309.7 hPa 0 mm - 624 W/m² -
1788455536 22.78° C 36% 1309.6 hPa 0 mm - 617 W/m² -
1788455234 22.22° C 36% 1309.7 hPa 0 mm - 607 W/m² -
1788454941 22.22° C 37% 1309.5 hPa 0 mm - 599 W/m² -
1788454627 21.67° C 36% 1309.5 hPa 0 mm - 587 W/m² -
1788454323 22.22° C 38% 1309.6 hPa 0 mm - 579 W/m² -

* Rain latest hour (hover to see other rain measurements)
** Current wind speed in m/s (hover to see current wind gust speed)